Home > Weather > Limerick > Past weeks

Flag for Ireland Past Weather in Limerick, Ireland — Yesterday and Last 2 Weeks

Now
63 °F

Broken clouds.


Feels Like: 63 °F
Forecast: 55 / 64 °F
Wind: 9 mph from West

Location: Shannon Airport

Current Time: Jul 23, 2016 at 6:11:01 PM

Latest Report: Jul 23, 2016 at 6:00 PM


Visibility: N/A

Pressure: 30.09 "Hg

Humidity: 77%

Dew Point: 55 °F

Location of LimerickLocation

Past Weather in Limerick — Graph

°F

Limerick Temperature Yesterday

Maximum temperature yesterday: 64 °F (at 2:00 PM)
Minimum temperature yesterday: 57 °F (at 2:30 AM)
Average temperature yesterday: 60 °F

High & Low Weather Summary for the Past Weeks

 TemperatureHumidityPressure
High82 °F (Jul 19, 1:30 PM)94% (Jul 9, 3:30 AM)30.33 "Hg (Jul 9, 3:30 AM)
Low52 °F (Jul 12, 11:00 PM)37% (Jul 18, 5:30 PM)29.42 "Hg (Jul 10, 3:30 PM)
Average61 °F80%29.99 "Hg
* Reported Jul 8 5:00 PM — Jul 23 5:00 PM, Limerick, Weather by CustomWeather, © 2016

Note: Actual official high and low records may vary slightly from our data, if they occured in-between our weather recording intervals... More about our weather records

Advertising

Limerick Weather History for the Previous 24 Hours

Scroll right to see more
 ConditionsComfort  
Time TempWeatherWind HumidityBarometerVisibility
5:00 PM
Sat, Jul 23
63 °FPartly sunny.9 mph77%30.09 "HgN/A
4:30 PM63 °FPartly sunny.12 mph77%30.09 "HgN/A
4:00 PM64 °FPartly sunny.14 mph73%30.09 "HgN/A
3:30 PM64 °FPartly sunny.14 mph73%30.09 "HgN/A
3:00 PM64 °FPartly sunny.14 mph73%30.09 "HgN/A
2:30 PM64 °FPartly sunny.13 mph78%30.09 "HgN/A
2:00 PM64 °FPartly sunny.12 mph78%30.09 "HgN/A
1:30 PM66 °FBroken clouds.16 mph73%30.09 "HgN/A
1:00 PM64 °FPartly sunny.10 mph78%30.09 "HgN/A
12:30 PM63 °FDrizzle. Partly sunny.15 mph88%30.09 "Hg4 mi
12:00 PM63 °FDrizzle. Partly sunny.14 mph88%30.09 "Hg4 mi
11:30 AM63 °FDrizzle. Partly sunny.10 mph88%30.07 "Hg3 mi
11:00 AM63 °FDrizzle. Partly sunny.8 mph88%30.07 "Hg1 mi
10:30 AM61 °FDrizzle. Broken clouds.7 mph88%30.07 "Hg4 mi
10:00 AM61 °FPartly sunny.9 mph88%30.07 "HgN/A
9:30 AM61 °FPartly sunny.10 mph88%30.07 "HgN/A
9:00 AM59 °FBroken clouds.9 mph88%30.07 "HgN/A
8:30 AM57 °FLight rain. Broken clouds.8 mph94%30.07 "HgN/A
8:00 AM57 °FLight rain. Broken clouds.9 mph94%30.07 "Hg2 mi
7:30 AM57 °FLight rain. Broken clouds.9 mph88%30.07 "Hg2 mi
7:00 AM59 °FBroken clouds.8 mph82%30.07 "HgN/A
6:30 AM59 °FPassing clouds.9 mph77%30.07 "HgN/A
6:00 AM59 °FPartly cloudy.9 mph82%30.07 "HgN/A
5:30 AM59 °FPassing clouds.7 mph82%30.07 "HgN/A
5:00 AM59 °FPartly cloudy.9 mph82%30.07 "HgN/A
4:30 AM59 °FPartly cloudy.7 mph82%30.07 "HgN/A
4:00 AM59 °FClear.7 mph82%30.09 "Hg10 mi
3:30 AM59 °FPassing clouds.7 mph82%30.09 "HgN/A
3:00 AM59 °FPassing clouds.6 mph82%30.09 "HgN/A
2:30 AM59 °FPartly cloudy.5 mph82%30.09 "HgN/A
2:00 AM59 °FPassing clouds.3 mph82%30.09 "HgN/A
1:30 AM59 °FPartly cloudy.2 mph82%30.12 "HgN/A
1:00 AM59 °FPartly cloudy.1 mph82%30.12 "HgN/A
12:30 AM59 °FPassing clouds.No wind82%30.12 "HgN/A
12:00 AM59 °FPassing clouds.2 mph82%30.12 "HgN/A
11:30 PM
Fri, Jul 22
59 °FPassing clouds.2 mph77%30.12 "HgN/A
11:00 PM59 °FPassing clouds.2 mph77%30.15 "HgN/A
10:30 PM61 °FPartly sunny.2 mph77%30.15 "HgN/A
10:00 PM61 °FBroken clouds.3 mph77%30.12 "HgN/A
9:30 PM61 °FBroken clouds.3 mph77%30.15 "HgN/A
9:00 PM61 °FBroken clouds.5 mph77%30.12 "HgN/A
8:30 PM63 °FBroken clouds.5 mph68%30.12 "HgN/A
8:00 PM63 °FPartly sunny.6 mph68%30.12 "HgN/A
7:30 PM63 °FPartly sunny.7 mph73%30.12 "HgN/A
7:00 PM63 °FPartly sunny.7 mph68%30.12 "HgN/A
6:30 PM63 °FPartly sunny.8 mph68%30.12 "HgN/A
6:00 PM64 °FPartly sunny.8 mph64%30.12 "HgN/A
Weather by CustomWeather, © 2016

See weather overviewHow to use our weather pages